SZN207 GVAC-GVNP

Flight info

Callsign SZN207
Flight time 0h 31m
Altitude 22000
Route DISDA1A DISDA DISDA1H
Aircraft B738/M-SDE2E3FGHIRWXY/LB1

Departure

Time 2026-04-25 11:23
Airport Amílcar Cabral International Airport (GVAC)

Arrival

Time 2026-04-25 11:55
Airport Nelson Mandela International Airport (GVNP)
Time Latitude Longitude Altitude Speed Heading
2026-04-25 11:05 16.73300 -22.94503 206 ft 0 kts 90°
2026-04-25 11:15 16.73300 -22.94518 209 ft 4 kts 92°
2026-04-25 11:16 16.73309 -22.94573 199 ft 4 kts 116°
2026-04-25 11:16 16.73324 -22.94593 199 ft 4 kts 161°
2026-04-25 11:16 16.73335 -22.94595 199 ft 1 kts 179°
2026-04-25 11:17 16.73336 -22.94595 199 ft 0 kts 179°
2026-04-25 11:19 16.73335 -22.94595 199 ft 1 kts 179°
2026-04-25 11:19 16.73311 -22.94595 199 ft 6 kts 179°
2026-04-25 11:19 16.73256 -22.94594 199 ft 10 kts 179°
2026-04-25 11:20 16.73172 -22.94593 199 ft 14 kts 179°
2026-04-25 11:20 16.73094 -22.94602 199 ft 10 kts 211°
2026-04-25 11:20 16.73055 -22.94657 199 ft 9 kts 239°
2026-04-25 11:20 16.73004 -22.94691 199 ft 9 kts 182°
2026-04-25 11:21 16.72913 -22.94691 190 ft 16 kts 180°
2026-04-25 11:21 16.72788 -22.94690 188 ft 20 kts 180°
2026-04-25 11:21 16.72632 -22.94688 185 ft 25 kts 179°
2026-04-25 11:21 16.72465 -22.94687 182 ft 11 kts 179°
2026-04-25 11:22 16.72409 -22.94720 182 ft 10 kts 255°
2026-04-25 11:22 16.72408 -22.94767 183 ft 10 kts 270°
2026-04-25 11:22 16.72407 -22.94861 185 ft 9 kts 275°
2026-04-25 11:22 16.72466 -22.94886 186 ft 15 kts 359°
2026-04-25 11:23 16.72819 -22.94888 187 ft 89 kts
2026-04-25 11:23 16.73680 -22.94894 187 ft 155 kts 359°
2026-04-25 11:23 16.74893 -22.94907 572 ft 179 kts 359°
2026-04-25 11:23 16.76114 -22.94918 1550 ft 175 kts 359°
2026-04-25 11:24 16.77429 -22.94929 2010 ft 206 kts 359°
2026-04-25 11:24 16.78956 -22.94947 2304 ft 232 kts 359°
2026-04-25 11:24 16.80669 -22.94978 2568 ft 260 kts 359°
2026-04-25 11:24 16.82513 -22.94995 3356 ft 267 kts 359°
2026-04-25 11:25 16.84364 -22.94793 4261 ft 272 kts 21°
2026-04-25 11:25 16.85912 -22.93671 5177 ft 274 kts 49°
2026-04-25 11:25 16.86911 -22.91972 6054 ft 277 kts 69°
2026-04-25 11:25 16.87258 -22.89996 6889 ft 280 kts 90°
2026-04-25 11:26 16.87224 -22.87937 7675 ft 283 kts 92°
2026-04-25 11:26 16.87168 -22.85885 8539 ft 285 kts 92°
2026-04-25 11:26 16.87144 -22.83810 9183 ft 293 kts 90°
2026-04-25 11:26 16.87155 -22.81627 9868 ft 299 kts 90°
2026-04-25 11:27 16.87080 -22.79464 10476 ft 308 kts 101°
2026-04-25 11:27 16.86184 -22.77369 10635 ft 329 kts 130°
2026-04-25 11:27 16.84339 -22.75879 10792 ft 348 kts 157°
2026-04-25 11:27 16.82773 -22.75444 10915 ft 358 kts 174°
2026-04-25 11:28 16.79436 -22.75268 11462 ft 368 kts 179°
2026-04-25 11:28 16.76879 -22.75207 12336 ft 364 kts 179°
2026-04-25 11:28 16.74354 -22.75140 13307 ft 362 kts 179°
2026-04-25 11:28 16.71824 -22.75053 14050 ft 367 kts 178°
2026-04-25 11:29 16.69253 -22.74947 14757 ft 372 kts 178°
2026-04-25 11:29 16.66647 -22.74826 15506 ft 376 kts 178°
2026-04-25 11:29 16.64053 -22.74698 16237 ft 380 kts 177°
2026-04-25 11:29 16.61402 -22.74561 16950 ft 384 kts 177°
2026-04-25 11:30 16.58689 -22.74419 17643 ft 388 kts 177°
2026-04-25 11:30 16.56011 -22.74281 18303 ft 392 kts 177°
2026-04-25 11:30 16.53275 -22.74142 18952 ft 395 kts 177°
2026-04-25 11:30 16.50514 -22.74002 19582 ft 399 kts 177°
2026-04-25 11:31 16.47723 -22.73860 20196 ft 403 kts 177°
2026-04-25 11:31 16.44909 -22.73717 20787 ft 407 kts 177°
2026-04-25 11:31 16.42065 -22.73573 21312 ft 410 kts 177°
2026-04-25 11:31 16.39176 -22.73427 21533 ft 421 kts 177°
2026-04-25 11:32 16.36221 -22.73278 21834 ft 429 kts 177°
2026-04-25 11:32 16.33227 -22.73127 21998 ft 435 kts 177°
2026-04-25 11:32 16.30174 -22.72973 22005 ft 442 kts 178°
2026-04-25 11:32 16.27100 -22.73150 21985 ft 443 kts 193°
2026-04-25 11:33 16.24243 -22.74293 22010 ft 439 kts 208°
2026-04-25 11:33 16.21566 -22.75808 22006 ft 438 kts 209°
2026-04-25 11:33 16.18910 -22.77360 21999 ft 437 kts 210°
2026-04-25 11:33 16.16296 -22.78893 21996 ft 437 kts 210°
2026-04-25 11:34 16.14391 -22.80005 21999 ft 437 kts 209°
2026-04-25 11:34 16.11730 -22.81545 22001 ft 438 kts 209°
2026-04-25 11:34 16.09060 -22.83076 22002 ft 438 kts 209°
2026-04-25 11:34 16.07292 -22.84085 22001 ft 439 kts 209°
2026-04-25 11:35 16.03706 -22.86124 22001 ft 439 kts 209°
2026-04-25 11:35 16.01921 -22.87137 22001 ft 440 kts 209°
2026-04-25 11:35 15.99246 -22.88654 22003 ft 440 kts 208°
2026-04-25 11:35 15.96558 -22.90177 22001 ft 440 kts 208°
2026-04-25 11:36 15.93868 -22.91701 21999 ft 440 kts 208°
2026-04-25 11:36 15.91179 -22.93225 22001 ft 440 kts 208°
2026-04-25 11:36 15.88489 -22.94749 22001 ft 440 kts 208°
2026-04-25 11:36 15.85804 -22.96270 22001 ft 439 kts 208°
2026-04-25 11:37 15.83119 -22.97790 22001 ft 439 kts 208°
2026-04-25 11:37 15.80432 -22.99311 22001 ft 439 kts 208°
2026-04-25 11:37 15.77820 -23.00790 22002 ft 439 kts 208°
2026-04-25 11:37 15.75135 -23.02309 22001 ft 439 kts 208°
2026-04-25 11:38 15.72454 -23.03826 22001 ft 439 kts 208°
2026-04-25 11:38 15.69768 -23.05345 22002 ft 439 kts 208°
2026-04-25 11:38 15.67129 -23.06837 22001 ft 439 kts 208°
2026-04-25 11:38 15.64448 -23.08352 22001 ft 437 kts 208°
2026-04-25 11:39 15.61820 -23.09837 21990 ft 422 kts 208°
2026-04-25 11:39 15.59275 -23.11275 21661 ft 412 kts 208°
2026-04-25 11:39 15.56777 -23.12685 21227 ft 407 kts 208°
2026-04-25 11:39 15.54310 -23.14075 20750 ft 401 kts 208°
2026-04-25 11:40 15.51793 -23.15300 20247 ft 398 kts 202°
2026-04-25 11:40 15.49225 -23.16329 19732 ft 394 kts 200°
2026-04-25 11:40 15.46659 -23.17288 19236 ft 390 kts 200°
2026-04-25 11:40 15.44114 -23.18234 18736 ft 387 kts 200°
2026-04-25 11:41 15.41599 -23.19183 18239 ft 384 kts 200°
2026-04-25 11:41 15.39107 -23.20139 17786 ft 380 kts 200°
2026-04-25 11:41 15.36648 -23.21095 17359 ft 375 kts 201°
2026-04-25 11:41 15.34218 -23.22048 16888 ft 372 kts 201°
2026-04-25 11:42 15.31802 -23.22999 16375 ft 370 kts 201°
2026-04-25 11:42 15.29407 -23.23943 15904 ft 367 kts 201°
2026-04-25 11:42 15.27023 -23.24884 15439 ft 364 kts 201°
2026-04-25 11:42 15.24661 -23.25816 14968 ft 362 kts 201°
2026-04-25 11:43 15.22346 -23.26729 14497 ft 359 kts 201°
2026-04-25 11:43 15.20011 -23.27649 14034 ft 357 kts 201°
2026-04-25 11:43 15.17699 -23.28561 13563 ft 355 kts 201°
2026-04-25 11:43 15.15401 -23.29466 13103 ft 352 kts 201°
2026-04-25 11:44 15.13117 -23.30366 12643 ft 350 kts 201°
2026-04-25 11:44 15.10848 -23.31262 12185 ft 348 kts 201°
2026-04-25 11:44 15.08594 -23.32149 11713 ft 345 kts 201°
2026-04-25 11:44 15.06364 -23.33024 11510 ft 336 kts 201°
2026-04-25 11:45 15.04202 -23.33874 11339 ft 326 kts 201°
2026-04-25 11:45 15.02119 -23.34694 11202 ft 316 kts 201°
2026-04-25 11:45 15.00118 -23.35481 11073 ft 306 kts 201°
2026-04-25 11:45 14.98157 -23.36251 10846 ft 301 kts 201°
2026-04-25 11:46 14.96195 -23.37021 10451 ft 301 kts 201°
2026-04-25 11:46 14.94251 -23.37784 10057 ft 296 kts 201°
2026-04-25 11:46 14.92349 -23.38530 9674 ft 288 kts 201°
2026-04-25 11:46 14.90493 -23.39259 9299 ft 282 kts 201°
2026-04-25 11:47 14.88675 -23.39974 8925 ft 276 kts 201°
2026-04-25 11:47 14.86894 -23.40674 8550 ft 270 kts 201°
2026-04-25 11:47 14.85154 -23.41357 8208 ft 265 kts 201°
2026-04-25 11:47 14.83469 -23.42020 7871 ft 260 kts 201°
2026-04-25 11:48 14.81792 -23.42679 7534 ft 255 kts 201°
2026-04-25 11:48 14.80149 -23.43324 7208 ft 250 kts 201°
2026-04-25 11:48 14.78533 -23.43957 6883 ft 245 kts 201°
2026-04-25 11:48 14.76953 -23.44577 6568 ft 241 kts 201°
2026-04-25 11:49 14.75388 -23.45189 6270 ft 240 kts 201°
2026-04-25 11:49 14.73838 -23.45846 5943 ft 241 kts 211°
2026-04-25 11:49 14.72696 -23.47080 5628 ft 241 kts 245°
2026-04-25 11:49 14.72393 -23.48756 5318 ft 240 kts 276°
2026-04-25 11:50 14.72811 -23.50407 5047 ft 237 kts 290°
2026-04-25 11:50 14.73426 -23.51970 4705 ft 231 kts 292°
2026-04-25 11:50 14.74031 -23.53465 4412 ft 220 kts 292°
2026-04-25 11:50 14.74789 -23.54753 4102 ft 209 kts 317°
2026-04-25 11:51 14.76041 -23.55399 3847 ft 198 kts 348°
2026-04-25 11:51 14.77380 -23.55377 3584 ft 190 kts 14°
2026-04-25 11:51 14.78594 -23.54910 3371 ft 184 kts 20°
2026-04-25 11:51 14.79775 -23.54423 3122 ft 181 kts 20°
2026-04-25 11:52 14.80938 -23.53943 2890 ft 179 kts 20°
2026-04-25 11:52 14.82093 -23.53466 2667 ft 178 kts 20°
2026-04-25 11:52 14.83244 -23.52989 2427 ft 179 kts 21°
2026-04-25 11:52 14.84398 -23.52510 2196 ft 178 kts 21°
2026-04-25 11:53 14.85548 -23.52032 1965 ft 178 kts 21°
2026-04-25 11:53 14.86674 -23.51565 1730 ft 169 kts 20°
2026-04-25 11:53 14.87725 -23.51129 1561 ft 161 kts 20°
2026-04-25 11:53 14.88748 -23.50703 1327 ft 160 kts 21°
2026-04-25 11:54 14.89773 -23.50278 1108 ft 157 kts 20°
2026-04-25 11:54 14.90776 -23.49862 926 ft 155 kts 20°
2026-04-25 11:54 14.92781 -23.49022 487 ft 156 kts 22°
2026-04-25 11:55 14.93776 -23.48611 352 ft 149 kts 20°
2026-04-25 11:55 14.94494 -23.48313 353 ft 57 kts 21°
2026-04-25 11:55 14.94706 -23.48226 360 ft 28 kts 22°
2026-04-25 11:55 14.94879 -23.48154 368 ft 19 kts 21°
2026-04-25 11:56 14.94949 -23.48097 373 ft 6 kts
2026-04-25 11:56 14.94945 -23.48127 371 ft 7 kts 207°
2026-04-25 11:56 14.94883 -23.48150 367 ft 11 kts 200°
2026-04-25 11:56 14.94801 -23.48184 364 ft 14 kts 203°
2026-04-25 11:57 14.94706 -23.48225 359 ft 16 kts 202°
2026-04-25 11:57 14.94597 -23.48270 353 ft 12 kts 201°
2026-04-25 11:57 14.94552 -23.48325 350 ft 11 kts 268°
2026-04-25 11:57 14.94576 -23.48398 346 ft 10 kts 292°
2026-04-25 11:58 14.94570 -23.48452 345 ft 9 kts 228°
2026-04-25 11:58 14.94528 -23.48474 347 ft 4 kts 200°
2026-04-25 11:58 14.94511 -23.48498 349 ft 6 kts 272°
2026-04-25 11:58 14.94523 -23.48536 338 ft 3 kts 291°
2026-04-25 11:59 14.94525 -23.48542 336 ft 0 kts 291°